This demonstration page uses our WeatherBlox Daily Observations layout. Learn more.

39.92423, -83.80882

Hourly Observations for September 22, 2017

Temp ( °F °C ) Dew Point ( °F °C ) Humidity (%) Winds ( mph kmh ) Pressure ( in mb ) Visibility ( mi km ) Precip ( " mm )
12:56 am 00:56 Clear 67 19.4 65 18.3 93 93 E 5 7 30.06 1018 9 14.484096 0 0
1:56 am 01:56 Clear 66 18.9 64 17.8 93 93 Calm 30.06 1018 9 14.484096 0 0
2:56 am 02:56 Clear 67 19.4 64 17.8 91 91 Calm 30.06 1018 10 16.09344 0 0
3:56 am 03:56 Clear with Mist and Fog 64 17.8 63 17.2 96 96 Calm 30.06 1018 4 6.437376 0 0
4:56 am 04:56 Clear with Mist and Fog 65 18.3 64 17.8 97 97 Calm 30.06 1018 6 9.656064 0 0
5:56 am 05:56 Mostly Cloudy with Mist and Fog 63 17.2 62 16.7 97 97 Calm 30.09 1019 4 6.437376 0 0
6:56 am 06:56 Clear with Mist and Fog 62 16.7 62 16.7 100 100 ESE 3 6 30.09 1019 5 8.04672 0 0
7:56 am 07:56 Partly Cloudy with Mist and Fog 63 17.2 62 16.7 97 97 Calm 30.12 1020 5 8.04672 0 0
8:56 am 08:56 Mostly Cloudy 69 20.6 67 19.4 93 93 Calm 30.12 1020 7 11.265408 0 0
9:56 am 09:56 Mostly Sunny 76 24.4 70 21.1 82 82 Calm 30.12 1020 10 16.09344 0 0
10:56 am 10:56 Mostly Sunny 81 27.2 68 20 65 65 W 5 7 30.12 1020 10 16.09344 0 0
11:56 am 11:56 Sunny 84 28.9 68 20 59 59 WSW 7 11 30.12 1020 10 16.09344 0 0
12:56 pm 12:56 Sunny 83 28.3 68 20 61 61 Calm 30.09 1019 10 16.09344 0 0
1:56 pm 13:56 Sunny 85 29.4 68 20 57 57 E 3 6 30.09 1019 8 12.874752 0 0
2:56 pm 14:56 Mostly Cloudy 85 29.4 68 20 57 57 ENE 7 11 30.06 1018 10 16.09344 0 0
3:56 pm 15:56 Sunny 88 31.1 66 18.9 48 48 N 6 9 30.03 1017 10 16.09344 0 0
4:56 pm 16:56 Mostly Sunny 87 30.6 66 18.9 50 50 NE 3 6 30.03 1017 10 16.09344 0 0
5:56 pm 17:56 Mostly Sunny 86 30 65 18.3 49 49 E 8 13 30.03 1017 10 16.09344 0 0
6:56 pm 18:56 Sunny 82 27.8 66 18.9 58 58 SE 3 6 30.03 1017 10 16.09344 0 0
7:56 pm 19:56 Clear 75 23.9 66 18.9 74 74 Calm 30.06 1018 10 16.09344 0 0
8:56 pm 20:56 Clear 73 22.8 66 18.9 79 79 SE 3 6 30.06 1018 10 16.09344 0 0
9:56 pm 21:56 Clear 69 20.6 65 18.3 87 87 Calm 30.06 1018 10 16.09344 0 0
10:56 pm 22:56 Clear 68 20 64 17.8 87 87 Calm 30.06 1018 10 16.09344 0 0
11:56 pm 23:56 Clear 65 18.3 62 16.7 90 90 E 3 6 30.06 1018 10 16.09344 0 0

Powered by AerisWeather